CAPE
0 0 0 0 0 0 0 0 0 0 0 0 0 0 0 0 0 0 0 0 0 0 0 0 0 0 0 0 0 0 1 75 786 1226 1266 1096 1049 772 580 473 342 197 110
0 0 0 0 0 0 0 0 0 0 0 0 0 0 0 0 0 0 0 0 0 0 0 0 0 0 0 0 0 0 0 0 7 557 1041 1361 1064 924 703 544 392 232 154
0 0 0 0 0 0 0 0 0 0 0 0 0 0 0 0 0 0 0 0 0 0 0 0 0 3 15 14 7 4 0 0 2 180 395 794 1172 1043 797 636 495 325 214
0 0 0 0 0 0 0 0 0 0 0 0 0 0 0 0 0 0 0 0 0 0 0 0 0 27 15 10 8 24 16 3 0 0 0 7 331 881 1025 746 591 448 312
0 0 0 0 0 0 0 0 0 0 0 0 0 0 0 0 0 0 0 0 1 1 1 0 2 6 9 10 10 11 10 11 14 10 5 5 5 20 570 930 749 541 405
0 0 0 0 0 0 0 0 0 0 0 0 0 0 0 0 0 0 2 0 0 0 0 0 1 2 7 8 12 10 13 11 12 16 13 2 3 3 10 154 765 709 525
0 0 0 0 0 0 0 0 0 0 0 0 0 0 0 0 0 0 0 0 0 0 1 0 0 1 2 5 7 13 13 13 13 13 10 3 1 0 0 0 108 651 546
0 0 0 0 0 0 0 0 0 0 0 0 0 0 0 0 0 0 0 0 0 0 0 1 1 1 1 2 4 6 8 10 12 12 9 1 1 3 2 0 0 130 628
0 0 0 0 0 0 0 0 0 0 0 0 0 0 0 0 0 0 0 0 0 0 0 0 1 1 2 3 2 4 7 6 11 14 14 12 1 1 1 3 2 0 37
0 0 0 0 0 0 0 0 0 0 0 0 0 0 0 0 0 0 0 0 0 0 1 1 3 3 2 1 5 10 8 8 12 17 17 16 13 2 5 5 3 10 7
0 0 0 0 0 0 0 0 0 0 0 0 0 0 0 0 0 0 2 0 0 0 3 1 1 2 2 2 4 6 9 9 11 15 17 16 15 11 8 7 6 2 1
0 0 0 0 0 0 0 0 0 0 0 0 0 0 0 0 1 1 2 1 0 0 1 0 0 4 2 4 9 4 6 8 12 14 17 17 16 15 11 10 5 7 1
0 0 0 0 0 0 0 0 0 0 0 0 0 0 0 0 0 0 0 1 0 0 1 0 0 2 7 2 2 5 12 8 9 14 16 17 15 16 16 12 8 7 6
0 0 0 0 0 0 0 0 0 0 0 0 0 0 0 0 0 0 1 2 2 0 3 0 1 0 0 5 10 6 2 5 11 12 12 15 16 15 16 16 13 10 10
0 0 0 0 0 0 0 0 0 0 0 0 0 0 0 0 0 1 0 0 1 1 1 1 0 2 1 0 10 5 5 10 9 8 9 11 14 14 13 14 14 11 9
0 0 0 0 0 0 0 0 0 0 0 0 0 0 0 0 0 0 0 0 0 0 1 0 0 0 2 0 1 5 6 6 6 8 8 8 8 10 12 11 13 12 13
0 0 0 0 0 0 0 0 0 0 0 0 0 0 0 0 0 0 0 0 0 0 1 0 1 0 1 0 0 1 8 3 0 5 7 3 3 3 5 7 8 11 12
0 0 0 0 0 0 0 0 0 0 0 0 0 0 0 0 0 0 0 0 0 0 0 0 1 0 0 0 0 0 4 2 0 9 3 5 1 0 0 1 5 7 8
0 0 0 0 0 0 0 0 0 0 0 0 0 0 0 0 0 0 0 0 0 0 0 0 0 0 0 0 0 0 1 0 0 0 3 8 1 0 0 0 0 1 5
0 0 0 0 0 0 0 0 0 0 0 0 0 0 0 0 0 0 0 0 0 0 0 0 0 0 0 0 0 0 0 0 0 0 0 0 8 0 0 0 0 0 0
0 0 0 0 0 0 0 0 0 0 0 0 0 0 0 0 0 0 0 0 0 0 0 0 0 0 0 0 0 0 0 0 0 0 0 0 1 0 0 0 0 0 0
0 0 0 0 0 0 0 0 0 0 0 0 0 0 0 0 0 0 0 0 0 0 0 0 0 0 0 0 0 0 0 0 1 0 0 0 0 2 0 0 0 0 0
0 0 0 0 0 0 0 0 0 0 0 0 0 0 0 0 0 0 0 0 0 0 0 0 0 0 0 0 0 0 0 0 0 0 0 0 0 0 2 0 0 0 0
0 0 0 0 0 0 0 0 0 0 0 0 0 0 0 0 0 0 0 0 0 0 0 0 0 0 0 0 0 0 0 0 0 0 0 0 0 0 0 1 0 0 0
0 0 0 0 0 0 0 0 0 0 0 0 0 0 0 0 0 0 0 0 0 0 0 1 0 0 1 2 2 0 0 0 0 0 0 0 0 0 0 0 0 0 0
0 0 0 0 0 0 0 0 0 0 0 0 0 0 0 0 0 0 0 0 0 0 0 0 0 1 0 0 0 0 0 0 0 0 0 0 0 0 0 0 0 0 0
CIN
-0 -0 -0 -0 -0 -0 -0 -0 -0 -0 -0 -0 -0 -0 -0 -0 -0 -0 -0 -0 -0 -0 -0 -0 -0 -0 -0 -0 -0 -0 -0 -151 -4 -2 -8 -27 -28 -35 -41 -33 -35 -32 -31
-0 -0 -0 -0 -0 -0 -0 -0 -0 -0 -0 -0 -0 -0 -0 -0 -0 -0 -0 -0 -0 -0 -0 -0 -0 -0 -0 -0 -0 -0 -0 -0 -45 -10 -7 -1 -20 -30 -37 -40 -39 -42 -36
-0 -0 -0 -0 -0 -0 -0 -0 -0 -0 -0 -0 -0 -0 -0 -0 -0 -0 -0 -0 -0 -0 -0 -0 -0 -4 -1 -0 -0 -0 -0 -0 -30 -44 -11 -0 -0 -10 -36 -44 -46 -50 -43
-0 -0 -0 -0 -0 -0 -0 -0 -0 -0 -0 -0 -0 -0 -0 -0 -0 -0 -0 -0 -0 -0 -0 -0 -0 -0 -2 -6 -0 -0 -0 -0 -0 -0 -0 -233 -26 -0 -1 -25 -46 -60 -57
-0 -0 -0 -0 -0 -0 -0 -0 -0 -0 -0 -0 -0 -0 -0 -0 -0 -0 -0 -5 -1 -2 -6 -0 -0 -0 -0 -0 -0 -0 -0 -0 -0 -1 -2 -0 -0 -267 -6 -0 -21 -44 -62
-0 -0 -0 -0 -0 -0 -0 -0 -0 -0 -0 -0 -0 -0 -0 -0 -0 -0 -4 -0 -0 -0 -0 -0 -0 -0 -0 -0 -0 -0 -0 -0 -0 -0 -0 -1 -0 -0 -277 -75 -0 -9 -40
-0 -0 -0 -0 -0 -0 -0 -0 -0 -0 -0 -0 -0 -0 -0 -0 -0 -0 -0 -0 -0 -0 -0 -0 -0 -0 -0 -0 -0 -0 -0 -0 -0 -0 -0 -0 -0 -0 -0 -0 -54 -4 -25
-0 -0 -0 -0 -0 -0 -0 -0 -0 -0 -0 -0 -0 -0 -0 -0 -0 -0 -0 -1 -0 -0 -0 -0 -0 -0 -0 -0 -0 -0 -0 -0 -0 -0 -0 -0 -0 -0 -0 -0 -0 -81 -0
-0 -0 -0 -0 -0 -0 -0 -0 -0 -0 -0 -0 -0 -0 -0 -0 -0 -0 -0 -0 -0 -0 -0 -0 -0 -0 -0 -0 -0 -0 -0 -0 -0 -0 -0 -0 -0 -0 -0 -0 -0 -0 -93
-0 -0 -0 -0 -0 -0 -0 -0 -0 -0 -0 -0 -0 -0 -0 -0 -0 -0 -0 -0 -0 -0 -0 -0 -0 -0 -0 -0 -0 -0 -0 -0 -0 -0 -0 -0 -0 -0 -0 -0 -0 -0 -0
-0 -0 -0 -0 -0 -0 -0 -0 -0 -0 -0 -0 -0 -0 -0 -0 -0 -0 -0 -0 -0 -0 -0 -0 -0 -0 -0 -0 -0 -0 -0 -0 -0 -0 -0 -0 -0 -0 -0 -0 -0 -0 -0
-0 -0 -0 -0 -0 -0 -0 -0 -0 -0 -0 -0 -0 -0 -0 -0 -0 -0 -0 -0 -0 -0 -0 -0 -3 -1 -0 -0 -0 -0 -0 -0 -0 -0 -0 -0 -0 -0 -0 -0 -0 -0 -0
-0 -0 -0 -0 -0 -0 -0 -0 -0 -0 -0 -0 -0 -0 -0 -0 -0 -0 -0 -0 -0 -0 -0 -0 -0 -2 -0 -0 -0 -0 -0 -0 -0 -0 -0 -0 -0 -0 -0 -0 -0 -0 -0
-0 -0 -0 -0 -0 -0 -0 -0 -0 -0 -0 -0 -0 -0 -0 -0 -0 -0 -1 -0 -0 -0 -0 -0 -5 -0 -0 -0 -0 -0 -2 -0 -0 -0 -0 -0 -0 -0 -0 -0 -0 -0 -0
-0 -0 -0 -0 -0 -0 -0 -0 -0 -0 -0 -0 -0 -0 -0 -0 -0 -1 -1 -1 -0 -0 -0 -0 -0 -0 -2 -0 -0 -0 -0 -0 -0 -0 -0 -0 -0 -0 -0 -0 -0 -0 -0
-0 -0 -0 -0 -0 -0 -0 -0 -0 -0 -0 -0 -0 -0 -0 -0 -0 -0 -0 -0 -0 -0 -0 -1 -0 -0 -1 -0 -0 -0 -0 -0 -0 -0 -0 -0 -0 -0 -0 -0 -0 -0 -0
-0 -0 -0 -0 -0 -0 -0 -0 -0 -0 -0 -0 -0 -0 -0 -0 -0 -0 -0 -0 -1 -0 -0 -1 -1 -1 -2 -0 -0 -0 -0 -0 -0 -0 -0 -0 -0 -0 -0 -0 -0 -0 -0
-0 -0 -0 -0 -0 -0 -0 -0 -0 -0 -0 -0 -0 -0 -0 -0 -0 -0 -0 -0 -0 -0 -0 -0 -1 -8 -0 -0 -0 -0 -1 -1 -0 -0 -0 -0 -1 -0 -0 -1 -0 -0 -0
-0 -0 -0 -0 -0 -0 -0 -0 -0 -0 -0 -0 -0 -0 -0 -0 -0 -0 -0 -0 -0 -0 -0 -0 -0 -0 -0 -0 -0 -0 -0 -0 -0 -0 -0 -0 -1 -0 -0 -0 -0 -0 -0
-0 -0 -0 -0 -0 -0 -0 -0 -0 -0 -0 -0 -0 -0 -0 -0 -0 -0 -0 -0 -0 -0 -0 -0 -0 -0 -0 -0 -0 -0 -0 -0 -0 -0 -0 -0 -0 -0 -0 -0 -0 -0 -0
-0 -0 -0 -0 -0 -0 -0 -0 -0 -0 -0 -0 -0 -0 -0 -0 -0 -0 -0 -0 -0 -0 -0 -0 -0 -0 -0 -0 -0 -0 -0 -0 -0 -0 -0 -0 -0 -0 -0 -0 -0 -0 -0
-0 -0 -0 -0 -0 -0 -0 -0 -0 -0 -0 -0 -0 -0 -0 -0 -0 -0 -0 -0 -0 -0 -0 -0 -0 -0 -0 -0 -0 -0 -0 -0 -1 -0 -0 -0 -0 -1 -0 -0 -0 -0 -0
-0 -0 -0 -0 -0 -0 -0 -0 -0 -0 -0 -0 -0 -0 -0 -0 -0 -0 -0 -0 -0 -0 -0 -0 -0 -0 -0 -0 -0 -0 -0 -0 -0 -0 -0 -0 -0 -0 -3 -0 -0 -0 -0
-0 -0 -0 -0 -0 -0 -0 -0 -0 -0 -0 -0 -0 -0 -0 -0 -0 -0 -0 -0 -0 -0 -0 -0 -0 -0 -0 -0 -0 -0 -0 -0 -0 -0 -0 -0 -1 -0 -0 -1 -0 -0 -0
-0 -0 -0 -0 -0 -0 -0 -0 -0 -0 -0 -0 -0 -0 -0 -0 -0 -0 -0 -0 -0 -0 -0 -0 -0 -0 -0 -1 -1 -0 -0 -0 -0 -0 -0 -0 -0 -0 -0 -3 -0 -0 -0
-0 -0 -0 -0 -0 -0 -0 -0 -0 -0 -0 -0 -0 -0 -0 -0 -0 -0 -0 -0 -0 -0 -0 -0 -0 -3 -0 -0 -0 -1 -0 -0 -0 -0 -0 -0 -0 -0 -0 -0 -4 -0 -0
Wind_Speed
19 20 21 23 24 26 27 28 29 30 31 31 31 32 33 33 32 31 32 33 35 35 36 36 35 36 37 38 39 39 40 37 37 36 32 27 16 15 14 13 12 11 10
19 19 21 23 24 26 27 28 30 31 31 31 32 33 33 32 32 32 32 32 32 33 34 35 34 34 35 38 39 39 40 42 40 39 39 31 25 19 16 15 14 13 13
19 19 21 23 25 26 27 29 30 31 31 31 32 32 31 30 30 30 29 29 31 31 30 33 31 33 36 37 37 39 40 41 41 39 39 39 35 30 22 19 17 16 15
20 20 22 25 27 27 28 30 30 31 31 32 33 32 30 28 27 27 29 30 31 32 32 33 33 29 29 30 30 32 33 36 40 42 41 38 38 37 31 24 21 19 18
21 21 23 26 27 28 29 31 31 31 31 32 33 31 29 26 28 30 27 30 32 31 31 31 30 30 30 31 32 32 32 33 34 35 37 38 38 38 37 31 25 22 21
21 23 23 26 27 28 29 31 31 30 29 33 31 29 27 23 28 29 28 29 31 31 31 31 31 31 32 32 33 33 33 34 35 37 40 41 42 42 38 39 34 26 23
21 24 24 25 28 27 29 29 29 30 30 33 29 28 22 22 26 27 28 30 32 32 32 32 31 32 32 32 34 35 35 35 35 36 38 39 40 42 44 43 42 39 31
23 23 25 25 26 26 26 27 29 29 28 30 30 26 26 23 30 28 29 29 31 31 33 33 32 32 32 32 34 35 36 37 37 37 37 38 39 42 43 45 45 41 37
22 23 23 23 24 25 26 26 27 27 27 27 28 25 26 27 31 28 30 31 30 31 31 32 32 32 32 32 33 35 37 37 37 37 36 36 37 38 39 42 44 45 41
21 22 22 23 23 23 24 25 25 25 26 27 24 27 25 25 27 28 30 32 32 28 30 30 32 31 32 32 32 34 35 34 35 34 34 34 35 35 36 38 40 43 43
20 21 22 22 22 22 23 24 24 25 25 25 25 26 26 22 27 25 28 33 29 26 27 29 31 32 32 32 32 33 34 33 33 33 33 33 33 34 35 36 36 39 40
19 21 21 21 22 22 22 23 23 23 23 24 23 23 24 23 26 26 26 31 28 28 26 29 31 31 31 32 32 31 33 32 32 32 32 31 32 32 32 33 33 34 35
18 19 20 21 21 21 21 21 21 22 22 23 22 21 22 23 24 24 26 28 27 26 27 28 31 32 32 31 31 30 31 31 31 31 31 30 30 30 30 30 30 31 32
17 18 19 19 19 20 20 20 20 20 21 22 22 21 21 22 23 24 25 28 28 27 26 31 31 34 33 32 31 30 29 31 31 31 31 30 30 29 29 29 29 28 28
16 17 17 18 18 19 19 18 20 20 20 20 22 22 22 20 21 24 25 27 27 28 28 31 32 34 34 33 32 30 29 30 31 31 31 30 30 29 29 28 28 28 28
15 15 16 16 17 18 18 19 19 19 19 21 21 22 22 23 24 23 25 26 27 27 27 30 31 33 32 33 33 31 30 29 30 30 30 31 30 30 29 28 28 27 28
14 14 14 15 16 17 17 17 17 18 18 20 20 21 23 24 25 26 27 26 26 27 28 28 29 31 32 33 33 32 30 29 29 30 29 30 30 30 29 29 28 27 27
13 13 13 14 14 15 16 15 16 17 18 18 20 21 23 24 25 27 27 28 28 28 29 29 30 31 33 34 33 32 30 29 29 30 30 29 29 30 30 29 28 28 27
13 13 12 12 13 13 14 15 15 16 17 18 20 22 24 25 26 27 28 29 28 28 29 28 29 30 32 34 33 32 31 30 30 32 29 29 28 29 30 29 29 28 27
10 10 10 11 12 12 12 13 14 15 16 18 19 20 23 25 27 27 29 29 29 29 29 28 29 31 33 34 31 33 33 30 29 32 29 30 27 28 29 29 29 28 28
7 8 9 9 10 10 11 12 13 13 15 16 18 21 21 23 25 27 28 29 30 29 29 29 30 31 33 34 34 34 33 33 27 32 30 30 29 27 28 28 28 28 28
5 6 7 8 8 9 10 12 13 14 15 16 17 20 23 26 23 24 26 28 29 30 30 30 30 31 33 34 35 35 34 34 28 31 31 29 31 28 27 28 29 29 28
4 4 6 7 9 8 9 13 16 13 16 18 19 21 23 26 27 27 21 25 28 29 29 29 30 31 32 34 35 36 35 36 25 32 31 26 32 30 26 27 29 29 29
3 5 5 6 8 7 9 13 16 13 16 18 21 22 23 25 27 28 27 25 26 27 28 28 28 29 29 32 34 34 34 33 25 30 34 29 32 31 27 26 29 30 29
4 6 5 6 7 7 10 14 17 12 14 16 19 21 23 25 27 29 27 27 28 29 29 29 26 27 30 32 33 33 35 34 33 30 35 31 33 34 26 27 28 31 29
6 6 7 7 6 7 10 14 18 12 14 15 16 20 23 24 26 28 27 28 28 29 30 29 29 28 30 32 33 31 32 33 34 31 34 33 33 33 29 28 29 30 30
Wind_Direction
340 343 344 346 346 346 344 343 341 340 338 337 336 334 330 327 324 321 318 315 313 312 309 305 303 300 296 291 286 283 282 285 280 277 278 279 268 255 255 249 239 237 233
343 347 347 347 346 346 344 343 341 339 337 336 334 332 330 328 326 324 321 318 317 316 314 309 304 302 299 294 290 285 281 277 276 277 273 277 276 266 252 246 239 239 230
346 347 348 346 345 345 344 342 341 340 338 338 336 333 332 331 330 328 328 330 326 325 325 321 318 308 302 297 294 290 283 278 276 279 277 274 274 274 269 258 242 238 234
343 346 346 343 341 343 343 341 340 338 337 336 334 333 335 334 335 338 333 333 325 322 321 320 320 320 318 315 312 308 295 286 278 276 277 280 276 273 273 268 259 246 235
341 344 343 342 340 342 342 339 337 336 334 333 331 332 333 337 337 333 336 333 332 328 326 326 326 326 321 317 312 308 304 297 291 286 283 283 281 276 274 274 268 260 247
343 342 346 342 343 341 339 338 336 336 338 333 331 332 331 343 339 339 337 340 336 334 330 329 323 320 319 317 316 312 307 303 296 289 284 281 278 277 278 274 273 266 253
346 341 341 342 339 341 340 340 339 336 337 335 335 334 343 347 344 343 342 339 337 335 331 328 325 320 319 318 316 313 309 305 301 296 290 286 283 279 274 274 272 271 268
341 343 341 341 341 342 343 341 339 337 339 343 338 335 331 331 338 341 345 344 342 339 336 333 328 325 322 318 316 315 312 306 303 299 295 291 287 281 278 273 272 274 270
344 344 344 345 343 343 341 343 342 348 343 347 351 344 334 330 332 337 338 343 342 343 340 337 335 331 326 323 320 317 315 309 306 301 298 295 292 289 284 279 273 271 273
344 345 345 345 345 346 344 346 350 351 349 346 349 349 349 342 336 333 337 339 338 346 346 344 341 337 332 328 326 324 321 317 310 306 303 300 296 295 291 287 281 273 271
349 346 348 350 349 349 351 351 352 350 353 351 352 349 348 355 349 344 340 339 341 352 351 348 345 341 337 332 330 328 326 324 320 314 308 305 302 298 297 294 289 280 275
352 349 349 349 349 351 349 350 353 355 356 358 357 357 355 352 349 350 348 343 346 347 356 354 349 346 344 339 335 335 333 329 326 323 319 313 308 305 302 300 297 291 283
353 351 351 348 348 351 352 355 356 358 0 359 2 6 5 3 1 357 355 352 353 357 355 2 356 349 345 344 340 338 339 336 333 329 326 323 318 313 308 307 305 299 292
352 353 353 353 354 354 357 355 359 2 1 5 3 8 14 11 7 6 2 357 354 355 359 355 360 355 349 345 343 340 339 340 336 333 331 329 325 322 316 312 310 310 303
354 354 356 355 356 356 354 2 359 358 5 9 7 6 8 19 19 14 11 7 1 354 355 356 354 354 354 350 345 342 340 338 338 335 333 331 331 328 324 320 317 314 309
357 358 356 356 359 0 355 357 1 1 5 6 7 7 7 9 7 15 16 11 8 3 358 1 1 353 352 351 350 349 344 340 339 337 334 335 333 332 329 326 324 320 317
360 1 1 357 357 1 4 1 1 6 8 4 7 6 5 5 8 4 4 6 10 10 3 0 2 358 352 345 346 352 352 348 343 341 337 336 336 335 334 331 328 326 323
2 3 4 3 3 0 355 12 13 10 11 9 8 10 7 9 8 5 5 2 360 2 1 360 360 359 354 346 345 345 354 351 347 342 341 338 339 338 337 335 331 327 328
355 358 5 6 7 5 6 9 15 18 15 14 15 16 14 12 7 8 5 4 1 1 0 2 358 359 356 350 345 346 347 353 351 342 338 338 340 340 340 339 337 334 329
359 9 10 10 8 15 19 18 20 22 21 19 20 17 13 13 10 8 6 3 2 3 1 2 359 355 352 348 353 346 339 349 347 350 341 339 341 342 342 342 341 339 335
11 21 12 7 11 13 16 20 16 22 23 24 22 15 15 12 11 11 9 6 4 3 2 1 358 356 351 348 345 344 340 335 347 344 341 343 339 342 341 342 342 340 338
27 27 10 9 6 5 5 357 6 16 15 18 18 13 9 1 6 11 13 12 8 3 0 360 359 355 351 347 343 339 339 338 339 340 337 343 343 335 341 342 341 340 339
55 14 14 10 359 8 3 354 347 17 11 9 7 6 2 1 356 357 8 9 7 5 2 0 357 355 353 349 343 338 335 333 346 338 337 333 338 332 339 341 342 340 339
349 331 348 6 359 360 355 349 346 21 12 6 3 3 3 359 356 352 356 2 3 2 2 1 360 356 355 353 350 343 337 336 341 341 339 330 331 325 329 339 341 338 336
311 315 336 350 349 359 348 342 341 16 18 15 9 4 2 360 355 352 355 354 354 354 355 357 359 357 354 352 350 348 342 337 329 334 337 328 327 322 322 335 338 339 334
296 310 319 339 359 351 345 341 339 6 6 8 10 6 3 0 358 356 356 354 353 352 350 351 353 354 352 349 348 350 345 339 334 327 334 330 325 325 315 321 326 332 332